User: anonymous   Login
Location: Edmonton
(53.5500°N, 113.5000°W)
Time: 21:58:43
(UTC-07:00)
Language:

CZ-4C R/B - Orbit

View from above orbital plane
View from above orbital plane
View from above satellite
View from above satellite

Ground track
Ground track

The orbit data is extracted from the following two-line orbital elements,

1 36416U 10009D   17023.84803782 -.00000075  00000-0  14946-4 0  9994
2 36416  63.4412 291.1311 0372958 356.6838   3.1735 13.69510595344603
Epoch (UTC): 23 January 2017 20:21:10
Eccentricity: 0.0372958
inclination: 63.4412°
perigee height: 726 km
apogee height: 1276 km
right ascension of ascending node: 291.1311°
argument of perigee: 356.6838°
revolutions per day: 13.69510595
mean anomaly at epoch: 3.1735°
orbit number at epoch: 34460

The dashed part of the orbit path shows where the satellite is in the earth's shadow,  

DLR